IU2RPR-3 Weather Reports


time (UTC)temp
C
wind
direction
speed
KPH
gust
KPH
rain 1hr
cm
rain 24hr
cm
rain mn
cm
humidity
%
barometer
mb
20260503072019 18 0.0 0.0 0.00 0.00 0.00 49 1022.0
20260503055015 14 0.0 0.0 0.00 0.00 0.00 59 1022.3
20260503052015 13 0.0 0.0 0.00 0.00 0.00 59 1022.2
20260503045013 13 0.0 0.0 0.00 0.00 0.00 58 1022.1
20260503042012 13 0.0 0.0 0.00 0.00 0.00 57 1022.0
20260503035011 13 0.0 0.0 0.00 0.00 0.00 56 1022.0
20260503032009 13 0.0 0.0 0.00 0.00 0.00 57 1022.0
20260503025008 13 0.0 0.0 0.00 0.00 0.00 55 1022.0
20260503022007 14 0.0 0.0 0.00 0.00 0.00 53 1022.2
20260503015006 14 0.0 0.0 0.00 0.00 0.00 53 1022.4
20260503012004 14 0.0 0.0 0.00 0.00 0.00 53 1022.4
20260503005003 15 0.0 0.0 0.00 0.00 0.00 51 1022.5
20260503002002 15 0.0 0.0 0.00 0.00 0.00 51 1023.0
20260502235001 15 0.0 0.0 0.00 0.00 0.00 51 1023.2
20260502232000 15 0.0 0.0 0.00 0.00 0.00 48 1023.3
20260502224958 16 0.0 0.0 0.00 0.00 0.00 46 1023.4
20260502221957 16 0.0 0.0 0.00 0.00 0.00 48 1023.5
20260502214956 16 0.0 0.0 0.00 0.00 0.00 47 1023.6
20260502211955 16 0.0 0.0 0.00 0.00 0.00 47 1023.4
20260502204953 17 0.0 0.0 0.00 0.00 0.00 44 1023.4
20260502201952 18 0.0 0.0 0.00 0.00 0.00 43 1023.4
20260502194951 19 0.0 0.0 0.00 0.00 0.00 41 1023.3
20260502191949 20 0.0 0.0 0.00 0.00 0.00 36 1023.0
20260502185204 22 0.0 0.0 0.00 0.00 0.00 32 1022.7
20260502182203 23 0.0 0.0 0.00 0.00 0.00 31 1022.3
20260502162158 26 0.0 0.0 0.00 0.00 0.00 28 1022.5
20260502152155 28 0.0 0.0 0.00 0.00 0.00 25 1022.8
20260502122148 23 0.0 0.0 0.00 0.00 0.00 32 1025.6
20260502115147 23 0.0 0.0 0.00 0.00 0.00 31 1026.0
20260502112145 22 0.0 0.0 0.00 0.00 0.00 35 1026.5
20260502105144 22 0.0 0.0 0.00 0.00 0.00 34 1027.0
20260502102143 21 0.0 0.0 0.00 0.00 0.00 37 1027.5